{"data":{"norad_id":52452,"intl_designator":"2022-049B","name":"STARLINK-3909","alt_names":[],"object_type":"PAYLOAD","status":"ACTIVE","operator":null,"country":"US","launch_date":"2022-05-06","launch_site_code":"AFETR","launch_vehicle":null,"mission":null,"orbit_class":"UNKNOWN","rcs_meters":null,"size_class":null,"mass_kg":null,"dimensions":null,"purposes":["comms"],"wikipedia_slug":null,"has_3d_model":false,"image_url":null,"decayed_at":null,"tle_current":{"epoch":"2026-05-25T02:20:45.015936Z","epoch_age_seconds":77321,"freshness":"FRESH","line1":"1 52452U 22049B   26145.09774324 -.00003708  00000+0 -21485-3 0  9991","line2":"2 52452  53.2155  85.9825 0001429  63.4271 296.6868 15.08861970223644","mean_motion":15.0886197,"eccentricity":0.0001429,"inclination_deg":53.2155,"raan_deg":85.9825,"arg_perigee_deg":63.4271,"mean_anomaly_deg":296.6868,"bstar":-0.00021485,"rev_number":22364,"period_min":95.436165045634,"perigee_km":538.68768076671,"apogee_km":540.66479178963,"semimajor_km":6917.8132362782,"source":"CELESTRAK","updated_at":"2026-05-25T13:38:17.123959Z"}}}